Flag for USA

Past Weather in Little Washington Neighborhood Park, Maryland, USA — Yesterday and Last 2 Weeks

Now
46 °F

Partly sunny.


Feels Like: 38 °F
Forecast: 48 / 36 °F
Wind: 23 mph from Northwest

Location: Reagan National Airport

Current Time: Feb 18, 2019 at 6:05:25 pm

Latest Report: Feb 18, 2019 at 4:52 pm


Visibility: 10 mi

Pressure: 30.16 "Hg

Humidity: 40%

Dew Point: 23 °F

Location of Little Washington Neighborhood ParkLocation

Past Weather in Little Washington Neighborhood Park — Graph

°F

Little Washington Neighborhood Park Temperature Yesterday

Maximum temperature yesterday: 40 °F (at 2:52 pm)
Minimum temperature yesterday: 32 °F (at 5:52 am)
Average temperature yesterday: 36 °F

High & Low Weather Summary for the Past Weeks

 TemperatureHumidityPressure
High73 °F (Feb 5, 3:52 pm)96% (Feb 8, 12:43 am)30.78 "Hg (Feb 8, 12:43 am)
Low27 °F (Feb 10, 5:52 am)21% (Feb 15, 11:52 pm)29.65 "Hg (Feb 15, 2:52 pm)
Average43 °F66%30.09 "Hg
* Reported Feb 3 3:52 pm — Feb 18 3:52 pm, Little Washington Neighborhood Park. Weather by CustomWeather, © 2019

Note: Actual official high and low records may vary slightly from our data, if they occured in-between our weather recording intervals... More about our weather records

Advertising

Little Washington Neighborhood Park Weather History for the Previous 24 Hours

Scroll right to see more
 ConditionsComfort  
Time TempWeatherWind HumidityBarometerVisibility
3:52 pm
Mon, Feb 18
47 °FPartly sunny.23 mph44%30.11 "Hg10 mi
2:52 pm50 °FPartly sunny.22 mph41%30.06 "Hg10 mi
1:52 pm49 °FPartly sunny.17 mph43%30.04 "Hg10 mi
12:52 pm51 °FMore clouds than sun.24 mph44%30.01 "Hg10 mi
11:52 am50 °FMostly cloudy.15 mph52%30.00 "Hg10 mi
10:52 am47 °FMore clouds than sun.14 mph64%29.98 "Hg10 mi
9:52 am45 °FMostly cloudy.10 mph71%29.93 "Hg10 mi
8:52 am44 °FPartly sunny.3 mph79%29.91 "Hg10 mi
7:52 am41 °FCloudy.3 mph86%29.86 "Hg10 mi
6:52 am40 °FOvercast.3 mph86%29.84 "Hg10 mi
5:52 am40 °FPassing clouds.No wind86%29.82 "Hg10 mi
4:52 am40 °FLight rain. Overcast.3 mph89%29.80 "Hg10 mi
4:26 am40 °FLight rain. Low clouds.7 mph89%29.81 "Hg9 mi
3:52 am40 °FLight rain. Low clouds.8 mph89%29.78 "Hg10 mi
3:22 am40 °FLight rain. Low clouds.9 mph89%29.77 "Hg9 mi
2:52 am40 °FRain. Low clouds.10 mph86%29.79 "Hg8 mi
2:37 am39 °FLight rain. Low clouds.10 mph89%29.81 "Hg9 mi
2:15 am39 °FRain. Overcast.8 mph89%29.81 "Hg8 mi
1:52 am39 °FRain. Low clouds.14 mph89%29.82 "Hg9 mi
1:04 am39 °FLight rain. Low clouds.8 mph86%29.87 "Hg10 mi
12:52 am38 °FLight rain. Low clouds.9 mph90%29.87 "Hg10 mi
12:27 am38 °FLight rain. Mostly cloudy.7 mph90%29.89 "Hg10 mi
11:52 pm
Sun, Feb 17
37 °FLight rain. Low clouds.16 mph89%29.88 "Hg8 mi
11:33 pm37 °FLight rain. Mostly cloudy.15 mph86%29.88 "Hg8 mi
11:19 pm37 °FLight rain. Mostly cloudy.10 mph86%29.91 "Hg9 mi
11:08 pm37 °FLight rain. Mostly cloudy.8 mph86%29.92 "Hg10 mi
10:31 pm36 °FLight rain. Mostly cloudy.8 mph89%29.95 "Hg9 mi
10:21 pm36 °FLight rain. Mostly cloudy.5 mph89%29.96 "Hg7 mi
9:52 pm36 °FRain. Overcast.6 mph82%29.98 "Hg6 mi
8:52 pm36 °FLight rain. Overcast.5 mph79%29.97 "Hg10 mi
8:07 pm36 °FLight rain. Mostly cloudy.6 mph75%29.95 "Hg10 mi
7:52 pm36 °FLight rain. Mostly cloudy.7 mph75%29.96 "Hg10 mi
6:52 pm37 °FLight rain. Overcast.9 mph67%30.01 "Hg10 mi
Weather by CustomWeather, © 2019

See weather overview